Presure
177 184 192 171 177 184 183 187 183 181 198 195 203 219 167 201 179 194 187 213 202 212 208 207 269 332 323
193 192 172 185 176 197 183 201 171 213 200 184 171 171 196 202 193 187 197 199 195 217 235 261 287 315 316
169 175 171 195 185 196 190 165 199 170 195 198 204 174 166 191 203 191 194 211 206 236 202 283 328 321 308
191 182 188 184 182 185 191 171 187 204 183 205 182 184 208 210 187 197 203 197 206 219 211 250 321 318 298
174 185 182 192 184 180 191 182 193 155 183 181 182 191 218 187 211 197 186 214 229 216 221 236 320 304 297
194 216 192 172 177 188 190 193 195 191 183 166 206 205 178 206 190 182 204 219 254 206 232 320 303 297 307
195 181 184 182 187 197 196 189 202 199 186 183 206 200 212 187 204 208 230 218 226 258 316 308 304 312 312
208 196 195 182 181 181 183 175 190 193 199 220 195 202 181 206 200 228 222 238 278 227 307 316 346 332 314
195 190 189 202 183 193 207 196 189 179 196 194 194 186 205 219 213 237 230 266 247 286 295 335 336 313 298
190 181 200 193 197 197 182 195 201 201 199 201 207 208 204 214 228 236 274 256 255 288 285 317 312 299 292
196 188 191 194 195 204 216 183 201 218 202 212 194 203 233 250 248 265 246 247 276 275 283 300 298 293 284
183 192 204 200 206 193 211 226 201 211 214 220 213 237 237 245 268 253 265 270 272 280 280 286 291 284 276
203 199 207 208 215 200 215 207 221 214 222 217 269 262 259 264 239 259 266 278 278 267 277 280 282 279 275
199 217 201 185 205 209 215 242 251 228 247 301 291 272 259 264 265 276 277 271 276 270 294 284 273 271 274
203 207 213 213 218 218 236 235 244 264 265 277 274 275 271 266 270 270 267 269 258 281 282 283 283 273 270
219 216 216 247 254 288 267 300 292 278 281 279 274 267 265 268 272 271 265 267 281 276 265 262 284 276 270
281 273 289 292 294 300 297 279 285 281 275 273 266 264 258 268 268 268 272 273 275 268 266 258 264 285 275
Wind_Speed
78 93 99 59 77 92 93 82 80 73 104 105 109 114 70 110 67 97 83 127 102 118 95 82 82 40 32
104 106 68 103 78 117 84 117 71 114 112 76 63 63 110 114 101 79 117 111 92 128 124 98 68 42 32
75 86 78 111 104 110 106 67 117 66 100 111 117 62 81 99 122 93 102 122 120 131 82 73 42 38 30
114 98 115 105 100 107 115 77 108 122 83 120 89 97 121 115 93 114 123 87 119 124 101 86 43 36 31
99 115 108 121 111 96 121 105 114 68 83 91 99 118 124 92 135 115 68 130 137 111 102 103 39 39 31
125 113 124 87 100 123 129 128 120 124 99 68 130 124 82 132 98 71 133 143 120 81 105 43 41 40 32
125 106 108 109 120 130 112 121 130 131 115 102 131 132 137 101 134 146 145 112 111 91 45 46 43 39 34
122 124 118 111 104 111 115 97 132 134 135 134 125 141 85 149 137 145 136 128 74 92 46 43 29 27 31
132 120 130 139 123 137 141 138 117 94 126 127 120 97 147 147 138 123 125 75 93 59 46 34 26 28 28
130 115 140 137 135 138 116 145 142 145 143 143 152 152 131 149 145 120 73 84 81 47 42 31 28 29 28
145 127 136 139 141 146 144 104 143 145 144 155 114 128 139 122 109 77 91 83 50 46 39 32 33 31 29
116 142 141 148 154 141 146 148 137 151 147 158 150 140 128 109 65 81 61 56 48 43 39 33 33 33 31
157 152 153 153 151 133 157 150 160 155 153 150 116 104 100 67 83 70 61 50 46 44 41 35 35 35 34
139 158 142 94 159 154 164 146 134 157 133 64 65 69 73 64 65 53 49 48 44 42 40 38 38 36 36
148 156 157 158 167 159 150 152 138 103 95 65 63 59 58 57 54 52 49 44 41 38 36 36 38 39 39
166 164 162 147 142 93 107 68 64 66 58 55 53 54 52 51 50 47 45 43 38 36 37 36 37 40 41
105 116 86 81 70 61 58 67 60 57 56 53 51 50 51 47 45 45 41 38 36 36 35 38 37 42 43
Wind_Direction
309 312 312 301 314 315 315 313 323 314 324 323 326 325 280 330 310 328 326 332 330 332 331 318 322 305 300
306 306 306 310 310 308 314 314 299 313 320 317 294 293 329 329 328 319 332 332 328 329 328 326 317 302 297
304 307 301 305 306 306 312 290 312 294 319 318 321 305 298 324 326 322 325 326 329 327 327 317 298 295 296
300 301 303 305 304 311 310 298 315 313 313 318 318 317 319 321 317 321 328 320 325 321 325 319 294 291 290
303 300 304 303 308 306 308 308 312 290 306 314 316 318 317 315 322 322 306 321 321 319 320 320 289 290 286
295 292 301 301 305 305 307 309 310 312 307 295 313 316 303 320 314 303 318 319 316 317 321 289 289 285 280
296 297 298 305 305 304 300 308 306 307 310 308 314 316 315 309 316 317 315 317 318 312 294 291 287 282 270
291 296 298 301 301 302 305 300 306 307 309 304 310 314 304 314 314 313 312 315 304 315 293 292 275 256 249
294 293 299 296 300 300 300 302 301 297 303 308 307 305 309 309 313 310 312 301 307 299 295 290 260 251 240
293 294 294 294 296 298 297 300 302 303 304 306 305 307 308 308 308 310 297 303 305 292 294 285 260 249 247
291 293 295 296 297 297 295 296 301 299 302 302 304 306 305 304 306 298 303 302 288 290 289 278 263 258 251
289 291 291 291 294 294 296 295 300 300 300 303 304 302 305 300 287 296 294 292 286 285 283 271 263 259 253
285 287 288 290 293 295 296 297 298 299 300 302 300 296 298 285 297 291 291 283 282 279 277 266 262 258 252
285 285 289 288 293 294 295 292 292 297 295 285 287 288 288 283 285 283 282 281 279 276 269 261 257 255 252
285 287 287 287 289 288 292 294 291 291 291 283 282 279 278 281 280 280 280 280 276 274 268 261 250 250 250
278 282 284 282 283 284 285 280 280 281 278 276 276 276 277 278 279 281 280 278 274 266 264 262 255 250 249
274 274 276 280 278 276 273 277 278 276 273 272 272 272 274 281 281 280 276 274 271 267 263 260 260 252 249